Date String (YYYY-MM-DD hh:mm:ss) UTC,Instrument flags,absolute air pressure of the measurement (hPa),sample flow rate (lpm),inlet stack bypass flow (lpm),air temperature of the measurement (°C),ambient temperature measured by the external sensor (°C),aerosol sample conditioner tube jacket temperature (°C),OPC LED temperature (°C),internal box temperature (°C),relative humidity of the measurement (%),span deviation,mass concentration of particles derived from Lorenz-Mie calculation of OPC scattering (μg/m³),mass concentration of particles derived from Lorenz-Mie calculation of OPC scattering (μg/m³),mass concentration of particles derived from Lorenz-Mie calculation of OPC scattering (μg/m³)
DateTimeUTC,F1_M11,P_M11,Q1_M11,Q2_M11,T1_M11,T2_M11,T3_M11,T4_M11,T5_M11,U1_M11,ZSPAN_M11,X0_M11,X2_M11,X1_M11
2024-05-07 00:00:00,SystemResetWarning,0814.4,4.99,000.00,022.1,021.3,000.0,030.2,023.7,013.7,0000.0,0004.17,0000.64,0000.18
2024-05-07 00:01:00,SystemResetWarning,0814.5,5.00,000.00,022.1,021.4,000.0,030.2,023.7,013.5,0000.0,0004.16,0000.62,0000.18
2024-05-07 00:02:00,SystemResetWarning,0814.4,5.00,000.00,022.1,021.4,000.0,030.2,023.7,013.5,0000.0,0003.45,0000.62,0000.18
2024-05-07 00:03:00,SystemResetWarning,0814.4,5.01,000.00,022.1,021.4,000.0,030.2,023.7,013.3,0000.0,0002.94,0000.58,0000.18
2024-05-07 00:04:00,SystemResetWarning,0814.5,5.01,000.00,022.1,021.4,000.0,030.2,023.7,013.5,0000.0,0003.10,0000.55,0000.18
2024-05-07 00:05:00,SystemResetWarning,0814.4,5.00,000.00,022.1,021.4,000.0,030.2,023.8,013.7,0000.0,0003.35,0000.56,0000.18
2024-05-07 00:06:00,SystemResetWarning,0814.2,4.99,000.00,022.1,021.4,000.0,030.2,023.8,013.9,0000.0,0003.12,0000.53,0000.18
2024-05-07 00:07:00,SystemResetWarning,0814.3,5.00,000.00,022.1,021.4,000.0,030.3,023.8,013.6,0000.0,0003.14,0000.54,0000.18
2024-05-07 00:08:00,SystemResetWarning,0814.4,5.02,000.00,022.1,021.4,000.0,030.3,023.8,013.6,0000.0,0003.15,0000.54,0000.19
2024-05-07 00:09:00,SystemResetWarning,0814.5,5.00,000.00,022.1,021.4,000.0,030.3,023.8,013.8,0000.0,0003.22,0000.56,0000.18
2024-05-07 00:10:00,SystemResetWarning,0814.5,4.99,000.00,022.1,021.4,000.0,030.2,023.8,013.9,0000.0,0003.55,0000.58,0000.18
2024-05-07 00:11:00,SystemResetWarning,0814.5,4.99,000.00,022.1,021.4,000.0,030.2,023.8,013.8,0000.0,0003.58,0000.57,0000.18
2024-05-07 00:12:00,SystemResetWarning,0814.6,5.00,000.00,022.1,021.4,000.0,030.3,023.8,013.8,0000.0,0003.93,0000.62,0000.18
2024-05-07 00:13:00,SystemResetWarning,0814.1,5.00,000.00,022.1,021.4,000.0,030.2,023.8,013.8,0000.0,0004.03,0000.62,0000.18
2024-05-07 00:14:00,SystemResetWarning,0813.7,5.00,000.00,022.1,021.4,000.0,030.3,023.8,013.2,0000.0,0004.97,0000.64,0000.19
2024-05-07 00:15:00,SystemResetWarning,0814.3,5.00,000.00,022.1,021.3,000.0,030.3,023.7,013.5,0000.0,0005.12,0000.66,0000.19
2024-05-07 00:16:00,SystemResetWarning,0814.3,5.00,000.00,022.1,021.3,000.0,030.3,023.7,013.8,0000.0,0004.61,0000.64,0000.19
2024-05-07 00:17:00,SystemResetWarning,0814.3,5.00,000.00,022.1,021.3,000.0,030.3,023.7,013.6,0000.0,0004.50,0000.65,0000.20
2024-05-07 00:18:00,SystemResetWarning,0814.3,5.01,000.00,022.1,021.3,000.0,030.3,023.7,013.8,0000.0,0004.40,0000.64,0000.19
2024-05-07 00:19:00,SystemResetWarning,0814.4,5.00,000.00,022.1,021.3,000.0,030.2,023.7,013.8,0000.0,0004.40,0000.65,0000.19
2024-05-07 00:20:00,SystemResetWarning,0814.3,5.00,000.00,022.1,021.3,000.0,030.2,023.7,014.0,0000.0,0004.33,0000.62,0000.19
2024-05-07 00:21:00,SystemResetWarning,0814.3,5.00,000.00,022.1,021.3,000.0,030.2,023.7,014.0,0000.0,0003.94,0000.58,0000.18
2024-05-07 00:22:00,SystemResetWarning,0814.4,5.00,000.00,022.0,021.3,000.0,030.2,023.7,013.9,0000.0,0003.98,0000.59,0000.18
2024-05-07 00:23:00,SystemResetWarning,0814.6,4.99,000.00,022.0,021.3,000.0,030.2,023.7,014.0,0000.0,0004.58,0000.57,0000.19
2024-05-07 00:24:00,SystemResetWarning,0814.4,4.99,000.00,022.0,021.3,000.0,030.2,023.7,014.2,0000.0,0004.13,0000.55,0000.19
2024-05-07 00:25:00,SystemResetWarning,0814.5,5.00,000.00,022.0,021.3,000.0,030.2,023.7,014.1,0000.0,0002.96,0000.56,0000.18
2024-05-07 00:26:00,SystemResetWarning,0814.5,5.00,000.00,022.0,021.3,000.0,030.2,023.7,013.9,0000.0,0003.35,0000.54,0000.18
2024-05-07 00:27:00,SystemResetWarning,0814.6,5.00,000.00,022.0,021.3,000.0,030.2,023.8,014.2,0000.0,0003.48,0000.56,0000.17
2024-05-07 00:28:00,SystemResetWarning,0814.4,5.00,000.00,022.0,021.3,000.0,030.2,023.8,014.2,0000.0,0003.46,0000.54,0000.17
2024-05-07 00:29:00,SystemResetWarning,0814.2,5.00,000.00,022.1,021.3,000.0,030.2,023.8,014.2,0000.0,0003.93,0000.58,0000.18
2024-05-07 00:30:00,SystemResetWarning,0814.0,5.00,000.00,022.1,021.3,000.0,030.2,023.8,013.9,0000.0,0004.27,0000.62,0000.18
2024-05-07 00:31:00,SystemResetWarning,0814.1,5.00,000.00,022.1,021.3,000.0,030.2,023.7,014.0,0000.0,0004.84,0000.63,0000.18
2024-05-07 00:32:00,SystemResetWarning,0814.2,5.00,000.00,022.0,021.3,000.0,030.2,023.7,014.1,0000.0,0005.12,0000.67,0000.19
2024-05-07 00:33:00,SystemResetWarning,0814.3,5.00,000.00,022.0,021.3,000.0,030.2,023.7,013.6,0000.0,0005.21,0000.66,0000.18
2024-05-07 00:34:00,SystemResetWarning,0814.4,5.00,000.00,022.0,021.3,000.0,030.2,023.7,013.6,0000.0,0005.92,0000.63,0000.18
2024-05-07 00:35:00,SystemResetWarning,0814.4,5.00,000.00,022.0,021.3,000.0,030.2,023.7,014.1,0000.0,0005.44,0000.66,0000.18
2024-05-07 00:36:00,SystemResetWarning,0814.4,5.00,000.00,022.0,021.3,000.0,030.2,023.7,014.8,0000.0,0005.42,0000.65,0000.18
2024-05-07 00:37:00,SystemResetWarning,0814.7,5.01,000.00,022.0,021.3,000.0,030.2,023.7,014.6,0000.0,0004.83,0000.69,0000.18
2024-05-07 00:38:00,SystemResetWarning,0814.7,5.00,000.00,022.0,021.3,000.0,030.2,023.6,013.9,0000.0,0004.79,0000.75,0000.19
2024-05-07 00:39:00,SystemResetWarning,0814.7,5.00,000.00,022.0,021.3,000.0,030.2,023.6,013.5,0000.0,0004.97,0000.77,0000.19
2024-05-07 00:40:00,SystemResetWarning,0814.7,5.00,000.00,022.0,021.3,000.0,030.2,023.6,013.2,0000.0,0004.50,0000.73,0000.18
2024-05-07 00:41:00,SystemResetWarning,0814.6,5.00,000.00,022.0,021.3,000.0,030.2,023.6,013.6,0000.0,0004.36,0000.72,0000.18
2024-05-07 00:42:00,SystemResetWarning,0814.7,5.00,000.00,022.0,021.3,000.0,030.2,023.7,014.3,0000.0,0003.82,0000.70,0000.18
2024-05-07 00:43:00,SystemResetWarning,0814.6,4.99,000.00,022.0,021.3,000.0,030.2,023.7,014.6,0000.0,0003.65,0000.66,0000.17
2024-05-07 00:44:00,SystemResetWarning,0814.4,4.99,000.00,022.0,021.3,000.0,030.2,023.7,014.8,0000.0,0003.59,0000.68,0000.18
2024-05-07 00:45:00,SystemResetWarning,0814.3,5.01,000.00,022.0,021.3,000.0,030.2,023.7,014.6,0000.0,0002.15,0000.69,0000.18
2024-05-07 00:46:00,SystemResetWarning,0814.1,5.01,000.00,022.0,021.3,000.0,030.2,023.7,014.4,0000.0,0002.16,0000.66,0000.17
2024-05-07 00:47:00,SystemResetWarning,0814.2,5.01,000.00,022.0,021.3,000.0,030.2,023.7,014.6,0000.0,0002.69,0000.64,0000.18
2024-05-07 00:48:00,SystemResetWarning,0814.2,4.99,000.00,022.0,021.3,000.0,030.2,023.7,014.4,0000.0,0003.12,0000.61,0000.18
2024-05-07 00:49:00,SystemResetWarning,0814.2,5.00,000.00,022.0,021.3,000.0,030.2,023.7,015.1,0000.0,0002.98,0000.56,0000.17
2024-05-07 00:50:00,SystemResetWarning,0814.2,5.00,000.00,022.0,021.3,000.0,030.2,023.7,015.2,0000.0,0003.58,0000.57,0000.18
2024-05-07 00:51:00,SystemResetWarning,0814.3,5.01,000.00,022.0,021.3,000.0,030.2,023.7,015.2,0000.0,0004.06,0000.58,0000.18
2024-05-07 00:52:00,SystemResetWarning,0814.4,5.00,000.00,022.0,021.2,000.0,030.2,023.7,015.0,0000.0,0004.32,0000.60,0000.18
2024-05-07 00:53:00,SystemResetWarning,0814.4,5.01,000.00,022.0,021.2,000.0,030.2,023.7,015.1,0000.0,0004.32,0000.64,0000.20
2024-05-07 00:54:00,SystemResetWarning,0814.4,4.99,000.00,022.0,021.2,000.0,030.2,023.7,015.5,0000.0,0004.49,0000.71,0000.20
2024-05-07 00:55:00,SystemResetWarning,0813.8,4.99,000.00,022.0,021.2,000.0,030.2,023.7,014.0,0000.0,0004.43,0000.71,0000.20
2024-05-07 00:56:00,SystemResetWarning,0813.7,5.00,000.00,022.0,021.2,000.0,030.2,023.7,012.7,0000.0,0004.47,0000.71,0000.20
2024-05-07 00:57:00,SystemResetWarning,0814.6,5.01,000.00,022.0,021.2,000.0,030.2,023.7,012.9,0000.0,0004.39,0000.71,0000.20
2024-05-07 00:58:00,SystemResetWarning,0814.6,5.00,000.00,022.0,021.2,000.0,030.2,023.6,013.5,0000.0,0003.93,0000.72,0000.20
2024-05-07 00:59:00,SystemResetWarning,0814.8,5.00,000.00,022.0,021.2,000.0,030.2,023.6,014.5,0000.0,0003.34,0000.73,0000.20
